STARLINK-11210, 60116

Orbit data source: Space-Track

STARLINK-11210, 60116 is a payload satellite owned by SpaceX/Seattle (US) in LEO that was launched on Mon, 24 Jun 2024 UTC via an FALCON 9 launch vehicle from the Air Force Western Test Range (AFWTR). Payload-class satellites include a variety of spacecraft equipped with specific instruments for various scientific and technological missions. These include communications satellites like Starlink; space stations such as the ISS; scientific satellites like the Hubble; Earth observation satellites from companies like Planet Labs, Umbra, and HawkEye 360; GPS; miniature CubeSats for education and research; and military/defense satellites.

Loading next visibility...
Identifier
60116, 2024-118D
Orbit
LEO
Country
Flag of USUS
Related business
Manufacturer
SpaceX/Seattle
Mission
Operational Commercial Communications
Bus & Motor
STARLINK V2MD, Unknown motor
Mass
960 kg wet, ~910 kg dry
Launch date (UTC)
2024-06-24 (1 year ago)
Launch vehicle
FALCON 9
Launch site
Air Force Western Test Range (AFWTR)
Object type
Payload
Rocket body
Debris
Shape & HBR
Box + 2 Pan, 14.5 m
Radar Cross Section
36.964 m², Large (>1 m²)

Expand to show TLE details & history
Last TLE update: 1 day ago

TLE from 1 day ago
0 STARLINK-11210
1 60116U 24118D   25259.56873431 -.00003560  00000-0 -24569-4 0  9996
2 60116  53.1590 359.7557 0001051 109.5549 250.5583 15.69681725 70645
Epoch: 2025-09-16T13:38Z
TLE epoch observation values (Epoch: 2025-09-16T13:38:58.644Z)
Latitude
0.00003°
Longitude
159.25421°
Altitude
360.958 km
Speed
7.694 km/s
True Right ascension
23h 59m 01s
True Declination
0° 00' 00"
Sunlit
Object was in full shadow at epoch
Visualization orbit readout
Latitude
Unknown
Longitude
Unknown
Altitude
Unknown
Speed
Unknown
Apparent Right ascension
Unknown
Apparent Declination
Unknown
Sunlit
N/A
Visualization observer readout
Local Sidereal Time
12:32:06
Azimuth
Unknown
Elevation
Unknown
Doppler factor
Unknown
Orbital elements
Apogee altitude
360.777 km
Perigee altitude
359.36 km
Semi-major axis
6,738.206 km
Eccentricity
0.00011
Inclination
53.159°
RAAN
359.7557°
Arg. of periapsis
109.5549°
True anomaly
250.54694°
Mean anomaly
250.5583°
Eccentric anomaly
250.55262°
Mean motion
3.92398 °/min
Orbital period
91.74 mins
BSTAR
-0.000024569
Loading maneuver chart data...
Computing Atmospheric mass density...
Loading historical data...
Loading historical data...
Loading historical data...
Loading historical data...
Loading historical data...
Loading historical data...
Loading historical data...

Documentation

Showing up to 5 results
|